[[{"header":{"parameterUnit":"m.s-1","parameterCategory":1,"la1":30.2991,"la2":30.254,"lo1":-89.0895,"lo2":-89.0444,"dy":0.0017,"dx":0.0017,"nx":28,"ny":28,"refTime":"2025-12-21T03:00:00:Z","depth":0,"parameterNumber":2,"parameterNumberName":"U-component_of_WINDS"},"data":[0,0,0,0,0,0,0,0,0,0,0,0,0,0,0,0,0,0,0,0,0,0,0,0,0,0,0,0,0,0,0,0,0,0,0,0,0,0,0,0,0,0,0,0,0,0,0,0,0,0,0,0,0,0,0,0,0,0,-1.5492,-1.5492,0,-1.5535,-1.5535,-1.5536,-1.5557,-1.5557,-1.5557,-1.5557,-1.5602,-1.5603,-1.5604,0,0,0,0,0,0,0,0,0,0,0,0,0,-1.5425,-1.5426,-1.5492,-1.5492,-1.5493,-1.5535,-1.5535,-1.5536,-1.5557,-1.5557,-1.5557,-1.5557,-1.5601,-1.5603,-1.5604,0,0,0,0,0,0,0,0,0,0,0,0,0,-1.546,-1.5427,-1.5491,-1.5508,-1.551,-1.5535,-1.5535,-1.5536,-1.5557,-1.5557,-1.5557,-1.5557,-1.5601,-1.5603,-1.5605,-1.5616,0,0,-1.561,-1.5611,0,0,0,0,0,0,0,0,-1.5458,-1.5462,-1.5505,-1.5507,-1.5509,-1.554,-1.5529,-1.5563,-1.5557,-1.5539,-1.5557,-1.5557,-1.5581,-1.5585,-1.5593,-1.5618,-1.562,-1.561,-1.5611,-1.5612,-1.5613,0,0,0,0,0,0,0,-1.5456,-1.5461,-1.5509,-1.5506,-1.5508,-1.5513,-1.5518,-1.5535,-1.556,-1.5541,-1.5542,-1.5547,-1.5583,-1.5591,-1.5594,-1.5621,-1.561,-1.5612,-1.5613,-1.5614,-1.5654,-1.5654,0,0,0,0,0,0,-1.545,-1.5458,-1.5507,-1.551,-1.5483,-1.5514,-1.552,-1.5531,-1.556,-1.5564,-1.5547,-1.5548,-1.5588,-1.5592,-1.5596,-1.5609,-1.5612,-1.5614,-1.5615,-1.5654,-1.5654,-1.5654,0,0,0,0,0,0,-1.5449,-1.5455,-1.5506,-1.5485,-1.5491,-1.5515,-1.5527,-1.5531,-1.554,-1.5565,-1.5569,-1.5552,-1.5588,-1.5593,-1.561,-1.5611,-1.5615,-1.5616,-1.5654,-1.5654,-1.5654,-1.5637,0,0,0,0,0,0,-1.5447,-1.5454,-1.5459,-1.5485,-1.5493,-1.552,-1.5527,-1.5532,-1.5543,-1.5545,-1.557,-1.5574,-1.5589,-1.5607,-1.5612,-1.5614,-1.5618,-1.5654,-1.5654,-1.5654,-1.5637,-1.5636,-1.5635,0,0,0,0,0,-1.5445,-1.5454,-1.5459,-1.5465,-1.55,-1.552,-1.5524,-1.5541,-1.5543,-1.5548,-1.5563,-1.5573,-1.561,-1.5609,-1.5614,-1.5616,-1.5654,-1.5654,-1.5654,-1.5638,-1.5636,-1.5635,0,0,0,0,0,0,-1.5429,-1.5458,-1.5464,-1.5482,-1.5498,-1.5523,-1.553,-1.5539,-1.5555,-1.5556,-1.5576,-1.5581,-1.5595,-1.5608,-1.5606,-1.5627,-1.5633,-1.5634,-1.5619,-1.5618,-1.5616,-1.5613,-1.5619,0,0,0,0,0,-1.5428,-1.5442,-1.5466,-1.5479,-1.5486,-1.5506,-1.5516,-1.5527,-1.5545,-1.5552,-1.5568,-1.5585,-1.56,-1.5609,-1.5625,-1.5639,-1.5643,-1.5643,-1.5642,-1.5641,-1.5641,-1.5647,-1.5646,-1.5653,-1.5653,-1.5653,0,0,-1.5425,-1.5442,-1.545,-1.5476,-1.549,-1.5503,-1.5512,-1.5527,-1.5536,-1.5554,-1.557,-1.5582,-1.5602,-1.5616,-1.5624,-1.5627,-1.564,-1.5641,-1.564,-1.5641,-1.5646,-1.5646,-1.5645,-1.5653,-1.5653,-1.5653,0,0,-1.5427,-1.5442,-1.5453,-1.5466,-1.5486,-1.5499,-1.5501,-1.5524,-1.5533,-1.5549,-1.5562,-1.5573,-1.5599,-1.5612,-1.5622,-1.5624,-1.5633,-1.5628,-1.5622,-1.5627,-1.5627,-1.5626,-1.5625,-1.5625,-1.5629,-1.5629,-1.5629,0,-1.5421,-1.5442,-1.5458,-1.547,-1.548,-1.5495,-1.5506,-1.5518,-1.5542,-1.5548,-1.5552,-1.5582,-1.5597,-1.5613,-1.5613,-1.5621,-1.5623,-1.5626,-1.5626,-1.5625,-1.5625,-1.5624,-1.5624,-1.5628,-1.5628,-1.5628,-1.5628,0,-1.5432,-1.5446,-1.5453,-1.5474,-1.5485,-1.5496,-1.5513,-1.5522,-1.5531,-1.5543,-1.5558,-1.5575,-1.5593,-1.5598,-1.5608,-1.5614,-1.5615,-1.5622,-1.5628,-1.5623,-1.5623,-1.5623,-1.5627,-1.5627,-1.5627,-1.5627,0,0,-1.5428,-1.5455,-1.5457,-1.5466,-1.5487,-1.5498,-1.5509,-1.5525,-1.5532,-1.5547,-1.5556,-1.5576,-1.5581,-1.5592,-1.5603,-1.5607,-1.5605,-1.5613,-1.5614,-1.5609,-1.5611,-1.5605,-1.5605,-1.5611,-1.5611,-1.5611,-1.5608,0,-1.5431,-1.5452,-1.5465,-1.548,-1.5491,-1.5504,-1.5513,-1.5527,-1.5537,-1.5548,-1.556,-1.5573,-1.558,-1.5586,-1.5591,-1.5604,-1.5605,-1.5605,-1.5618,-1.5618,-1.5612,-1.5605,-1.5599,-1.5596,-1.5609,-1.5609,-1.5609,0,-1.5439,-1.5452,-1.5467,-1.5485,-1.549,-1.5498,-1.5512,-1.5523,-1.5538,-1.5545,-1.5555,-1.5566,-1.5576,-1.5581,-1.5595,-1.5594,-1.56,-1.5606,-1.5607,-1.5608,-1.5613,-1.5605,-1.5596,-1.5595,-1.5609,-1.5609,-1.5609,0,-1.5432,-1.5453,-1.5464,-1.5471,-1.5492,-1.5497,-1.5506,-1.5521,-1.5529,-1.5541,-1.5546,-1.556,-1.5567,-1.5577,-1.559,-1.5593,-1.5602,-1.5608,-1.5607,-1.5606,-1.5609,-1.5608,-1.5599,-1.5614,-1.5614,-1.5614,-1.5614,0,-1.5434,-1.5442,-1.5461,-1.5468,-1.5477,-1.5491,-1.5499,-1.5509,-1.5522,-1.553,-1.5542,-1.5549,-1.5567,-1.5575,-1.5586,-1.5594,-1.5598,-1.5603,-1.5606,-1.5602,-1.5601,-1.5606,-1.5606,-1.5614,-1.5614,-1.5614,-1.5614,0,-1.5428,-1.5441,-1.5453,-1.5471,-1.5475,-1.5481,-1.5495,-1.5502,-1.5512,-1.5522,-1.5525,-1.5541,-1.5552,-1.5566,-1.5582,-1.5588,-1.5595,-1.56,-1.559,-1.5591,-1.5589,-1.5588,-1.5582,-1.5581,-1.5597,-1.5597,-1.5597,0,-1.5428,-1.5434,-1.5451,-1.5457,-1.5465,-1.5475,-1.5482,-1.5496,-1.5503,-1.5518,-1.5522,-1.5533,-1.5543,-1.5559,-1.5572,-1.5583,-1.5588,-1.5585,-1.559,-1.5584,-1.5586,-1.5585,-1.5584,-1.5583,-1.5583,-1.5583,-1.5583,0,-1.5426,-1.5431,-1.5441,-1.5452,-1.546,-1.547,-1.548,-1.5484,-1.55,-1.5507,-1.5517,-1.5524,-1.5539,-1.5549,-1.5562,-1.557,-1.5578,-1.5581,-1.5581,-1.5577,-1.557,-1.5572,-1.5585,-1.5581,-1.5581,-1.5582,-1.5582,-1.5582,-1.5422,-1.5427,-1.5439,-1.5449,-1.5457,-1.5466,-1.5472,-1.5481,-1.549,-1.5502,-1.551,-1.5519,-1.5531,-1.5548,-1.5556,-1.5563,-1.5566,-1.5567,-1.5567,-1.5566,-1.5564,-1.5569,-1.5565,-1.5565,-1.5565,-1.5565,-1.5565,0,-1.542,-1.5427,-1.5436,-1.5449,-1.5456,-1.5462,-1.5472,-1.5478,-1.5486,-1.5496,-1.5504,-1.5514,-1.5524,-1.5536,-1.5546,-1.5549,-1.5553,-1.5551,-1.5551,-1.5552,-1.5562,-1.556,-1.5548,-1.5548,-1.5548,-1.5548,-1.5548,-1.5548,-1.542,-1.5427,-1.5433,-1.5445,-1.5452,-1.5461,-1.5466,-1.5473,-1.5481,-1.5491,-1.5499,-1.5506,-1.5516,-1.5527,-1.5535,-1.5538,-1.554,-1.5537,-1.5541,-1.555,-1.5552,-1.5553,-1.5552,-1.5538,-1.5538,-1.5531,-1.5531,-1.5531]},{"header":{"parameterUnit":"m.s-1","parameterCategory":1,"la1":30.2991,"la2":30.254,"lo1":-89.0895,"lo2":-89.0444,"dy":0.0017,"dx":0.0017,"nx":28,"ny":28,"refTime":"2025-12-21T03:00:00:Z","depth":0,"parameterNumber":3,"parameterNumberName":"V-component_of_WINDS"},"data":[0,0,0,0,0,0,0,0,0,0,0,0,0,0,0,0,0,0,0,0,0,0,0,0,0,0,0,0,0,0,0,0,0,0,0,0,0,0,0,0,0,0,0,0,0,0,0,0,0,0,0,0,0,0,0,0,0,0,2.9756,2.9757,0,2.9825,2.9826,2.9827,2.9895,2.9896,2.9896,2.9897,2.9968,2.9969,2.997,0,0,0,0,0,0,0,0,0,0,0,0,0,2.9684,2.9685,2.9756,2.9757,2.9757,2.9825,2.9826,2.9827,2.9894,2.9896,2.9897,2.9898,2.9967,2.9968,2.997,0,0,0,0,0,0,0,0,0,0,0,0,0,2.973,2.9685,2.9756,2.9799,2.9804,2.9825,2.9826,2.9827,2.9894,2.9896,2.9897,2.9898,2.9967,2.9968,2.997,2.9953,0,0,2.9975,2.9975,0,0,0,0,0,0,0,0,2.9728,2.9733,2.9792,2.9796,2.9801,2.9853,2.9827,2.987,2.9894,2.986,2.9897,2.9899,2.9928,2.9933,2.9943,2.9956,2.996,2.9975,2.9976,2.9976,2.9977,0,0,0,0,0,0,0,2.9724,2.973,2.9783,2.9793,2.9799,2.9816,2.9824,2.9835,2.9886,2.9863,2.9868,2.9875,2.9931,2.9941,2.9945,2.9961,2.9975,2.9976,2.9977,2.9978,2.997,2.9968,0,0,0,0,0,0,2.9714,2.9727,2.9781,2.9785,2.9767,2.9817,2.9826,2.9835,2.9886,2.9895,2.9874,2.9878,2.9938,2.9943,2.9948,2.9936,2.9976,2.9978,2.9979,2.9971,2.9969,2.9968,0,0,0,0,0,0,2.9712,2.9718,2.9778,2.9758,2.9767,2.9816,2.9826,2.9836,2.9846,2.9894,2.9904,2.9875,2.9939,2.9946,2.9953,2.9939,2.9979,2.998,2.9972,2.997,2.9969,2.9908,0,0,0,0,0,0,2.971,2.9717,2.971,2.9757,2.9768,2.9781,2.9825,2.9836,2.9849,2.9855,2.9898,2.9906,2.9941,2.995,2.9954,2.9942,2.9981,2.9974,2.9971,2.9969,2.9912,2.9905,2.9898,0,0,0,0,0,2.9707,2.9689,2.971,2.9716,2.976,2.978,2.9786,2.9826,2.9847,2.9842,2.9874,2.9905,2.994,2.995,2.9956,2.9943,2.9975,2.9972,2.9969,2.9915,2.9906,2.9899,0,0,0,0,0,0,2.9638,2.9696,2.9719,2.9716,2.9743,2.9791,2.9785,2.9815,2.9836,2.984,2.9889,2.9899,2.9901,2.9923,2.9933,2.9933,2.9962,2.996,2.9918,2.991,2.9904,2.9899,2.9983,0,0,0,0,0,2.9623,2.9634,2.9684,2.9676,2.9688,2.9734,2.9744,2.9774,2.9803,2.9814,2.9847,2.9874,2.9892,2.9902,2.9921,2.9915,2.9928,2.991,2.9903,2.9898,2.9896,2.9899,2.9893,2.9959,2.9959,2.9959,0,0,2.9591,2.9624,2.9627,2.9663,2.9687,2.9699,2.9743,2.9752,2.9762,2.9816,2.9825,2.985,2.9884,2.9886,2.9889,2.9905,2.9881,2.9894,2.9889,2.9891,2.9896,2.989,2.9884,2.9958,2.9958,2.9958,0,0,2.9539,2.9563,2.9562,2.9586,2.9623,2.9654,2.9654,2.9699,2.9718,2.9729,2.9771,2.9783,2.9811,2.9836,2.9852,2.9814,2.9845,2.9818,2.9784,2.9787,2.9782,2.9778,2.9767,2.9763,2.9816,2.9816,2.9816,0,2.9494,2.9513,2.9557,2.9565,2.9581,2.9632,2.9633,2.9654,2.9694,2.9705,2.9722,2.9762,2.9788,2.9799,2.979,2.98,2.9804,2.9814,2.9779,2.9775,2.9772,2.9763,2.9758,2.9813,2.9813,2.9814,2.9814,0,2.9458,2.9471,2.9465,2.9505,2.9521,2.9524,2.9571,2.9582,2.961,2.9641,2.9653,2.9687,2.9716,2.972,2.9747,2.9736,2.9745,2.977,2.98,2.9761,2.9754,2.975,2.9808,2.981,2.9811,2.9811,0,0,2.9363,2.943,2.9428,2.9449,2.9495,2.9506,2.9514,2.9543,2.9553,2.958,2.9589,2.9614,2.9639,2.9657,2.9688,2.969,2.9663,2.9716,2.9717,2.9707,2.9657,2.9639,2.9634,2.9684,2.9683,2.9683,2.9655,0,2.9321,2.9338,2.938,2.9384,2.9399,2.945,2.9457,2.9487,2.9516,2.9534,2.9566,2.9585,2.9614,2.9626,2.9631,2.9665,2.9654,2.9667,2.9695,2.9695,2.9687,2.963,2.961,2.9582,2.9652,2.9651,2.9651,0,2.9273,2.93,2.9306,2.9356,2.9364,2.9369,2.9402,2.9417,2.9454,2.9475,2.9498,2.9533,2.9546,2.9574,2.9595,2.9603,2.9618,2.9637,2.9637,2.9642,2.9672,2.9636,2.9574,2.957,2.9646,2.9647,2.9647,0,2.9207,2.9244,2.9254,2.927,2.9327,2.9331,2.9355,2.9393,2.9409,2.9438,2.9449,2.9478,2.9495,2.9517,2.9561,2.9576,2.9578,2.9608,2.9598,2.9597,2.9597,2.9596,2.9538,2.9602,2.9602,2.9602,2.9602,0,2.9156,2.9159,2.9226,2.9232,2.9238,2.9287,2.9292,2.9321,2.9355,2.9369,2.9414,2.9426,2.9482,2.9501,2.9535,2.955,2.9556,2.9575,2.9584,2.9572,2.957,2.9583,2.9587,2.9601,2.9601,2.9602,2.9602,0,2.9083,2.9127,2.9142,2.9197,2.9211,2.9213,2.926,2.927,2.9303,2.9321,2.9328,2.938,2.9406,2.9451,2.9489,2.9512,2.9521,2.9535,2.9509,2.9515,2.9503,2.9505,2.9453,2.945,2.9513,2.9512,2.9512,0,2.9049,2.9053,2.9109,2.9122,2.9145,2.9165,2.9183,2.9233,2.925,2.9295,2.9299,2.9329,2.9355,2.9395,2.9437,2.9467,2.9484,2.9464,2.9489,2.9478,2.9487,2.9488,2.949,2.9459,2.9458,2.9457,2.9456,0,2.8985,2.9008,2.9031,2.9064,2.9085,2.9113,2.9143,2.9151,2.9208,2.9226,2.9253,2.9274,2.9315,2.9345,2.9383,2.9409,2.9443,2.9448,2.9448,2.9436,2.9422,2.9433,2.9496,2.9449,2.945,2.945,2.9451,2.9451,2.8932,2.8939,2.8981,2.9008,2.9036,2.9065,2.9077,2.9114,2.9138,2.9176,2.9204,2.923,2.9271,2.9325,2.935,2.9373,2.9388,2.9387,2.9387,2.9387,2.9383,2.9417,2.9379,2.938,2.938,2.938,2.938,0,2.8873,2.8903,2.8927,2.8969,2.8991,2.9022,2.9058,2.9074,2.9098,2.9133,2.9159,2.9193,2.9224,2.9269,2.9304,2.9314,2.933,2.9321,2.9322,2.9328,2.9366,2.9364,2.9307,2.9307,2.9307,2.9307,2.9307,2.9307,2.8844,2.886,2.8888,2.892,2.895,2.8978,2.8996,2.9024,2.9053,2.9089,2.9115,2.9145,2.9186,2.9224,2.9255,2.9268,2.9279,2.9266,2.9284,2.9318,2.9325,2.9331,2.933,2.9267,2.9267,2.9244,2.9244,2.9244]}]]